TimeCDT,TemperatureF,Dew PointF,Humidity,Sea Level PressureIn,VisibilityMPH,Wind Direction,Wind SpeedMPH,Gust SpeedMPH,PrecipitationIn,Events,Conditions,WindDirDegrees,DateUTC
12:15 AM,59.2,57.2,93,29.53,10.0,WSW,5.8,-,N/A,,Clear,240,2013-05-20 05:15:00
12:35 AM,59.0,57.4,94,29.55,10.0,SW,4.6,-,N/A,,Clear,220,2013-05-20 05:35:00
12:55 AM,59.0,57.6,95,29.56,10.0,SSE,3.5,-,N/A,,Clear,150,2013-05-20 05:55:00
1:15 AM,59.5,58.1,95,29.56,10.0,SSE,6.9,-,N/A,,Clear,160,2013-05-20 06:15:00
1:35 AM,59.9,58.1,94,29.55,10.0,SE,5.8,-,N/A,,Clear,140,2013-05-20 06:35:00
1:55 AM,59.0,57.7,96,29.55,10.0,SE,5.8,-,N/A,,Clear,140,2013-05-20 06:55:00
2:15 AM,59.0,58.1,97,29.55,10.0,SSE,6.9,-,N/A,,Clear,150,2013-05-20 07:15:00
2:35 AM,58.6,58.1,98,29.54,10.0,SSE,4.6,-,N/A,,Clear,150,2013-05-20 07:35:00
3:15 AM,57.4,57.4,100,29.53,7.0,SSE,5.8,-,N/A,,Clear,160,2013-05-20 08:15:00
3:35 AM,57.6,57.6,100,29.53,5.0,SE,5.8,-,N/A,,Clear,140,2013-05-20 08:35:00
3:55 AM,57.2,57.2,100,29.53,5.0,SE,5.8,-,N/A,,Clear,140,2013-05-20 08:55:00
4:35 AM,57.2,57.2,100,29.53,5.0,South,3.5,-,N/A,,Clear,170,2013-05-20 09:35:00
4:55 AM,56.8,56.8,100,29.53,7.0,South,3.5,-,N/A,,Clear,190,2013-05-20 09:55:00
5:15 AM,57.6,56.8,97,29.54,10.0,SSW,5.8,-,N/A,,Scattered Clouds,200,2013-05-20 10:15:00
5:35 AM,57.6,56.7,97,29.55,10.0,SSW,5.8,-,N/A,,Overcast,210,2013-05-20 10:35:00
5:55 AM,57.7,56.7,96,29.56,10.0,SW,4.6,-,N/A,,Overcast,230,2013-05-20 10:55:00
6:15 AM,57.6,56.8,97,29.57,10.0,SSW,8.1,-,N/A,,Overcast,210,2013-05-20 11:15:00
6:35 AM,58.1,57.4,97,29.58,10.0,WSW,10.4,-,N/A,,Overcast,240,2013-05-20 11:35:00
6:55 AM,59.0,58.1,97,29.59,10.0,West,13.8,-,N/A,,Overcast,260,2013-05-20 11:55:00
7:15 AM,59.5,57.6,93,29.59,10.0,West,12.7,-,N/A,,Overcast,280,2013-05-20 12:15:00
7:35 AM,60.1,57.4,91,29.62,10.0,West,12.7,-,N/A,,Mostly Cloudy,260,2013-05-20 12:35:00
7:55 AM,60.6,57.2,88,29.62,10.0,West,11.5,-,N/A,,Scattered Clouds,260,2013-05-20 12:55:00
8:15 AM,61.9,57.2,85,29.63,10.0,WSW,11.5,17.3,N/A,,Scattered Clouds,250,2013-05-20 13:15:00
8:35 AM,62.6,57.4,83,29.64,10.0,WSW,11.5,16.1,N/A,,Clear,250,2013-05-20 13:35:00
9:15 AM,64.0,56.8,77,29.64,10.0,WSW,11.5,-,N/A,,Clear,240,2013-05-20 14:15:00
9:35 AM,64.8,56.5,74,29.64,10.0,WSW,16.1,-,N/A,,Clear,240,2013-05-20 14:35:00
9:55 AM,65.7,56.5,72,29.63,10.0,WSW,10.4,20.7,N/A,,Clear,250,2013-05-20 14:55:00
10:35 AM,67.1,56.7,69,29.65,10.0,SW,13.8,19.6,N/A,,Scattered Clouds,220,2013-05-20 15:35:00
10:55 AM,68.0,56.1,66,29.65,10.0,WSW,12.7,16.1,N/A,,Scattered Clouds,240,2013-05-20 15:55:00
11:15 AM,68.4,57.0,67,29.65,10.0,SW,13.8,19.6,N/A,,Scattered Clouds,220,2013-05-20 16:15:00
11:35 AM,68.2,56.1,65,29.65,10.0,SW,15.0,21.9,N/A,,Scattered Clouds,230,2013-05-20 16:35:00
11:55 AM,69.4,57.7,66,29.65,10.0,SSW,11.5,19.6,N/A,,Scattered Clouds,210,2013-05-20 16:55:00
12:15 PM,70.0,57.7,65,29.65,10.0,SSW,12.7,-,N/A,,Scattered Clouds,200,2013-05-20 17:15:00
12:35 PM,70.5,57.7,64,29.65,10.0,SSW,11.5,18.4,N/A,,Mostly Cloudy,200,2013-05-20 17:35:00
12:55 PM,70.9,57.2,62,29.65,10.0,SW,9.2,15.0,N/A,,Overcast,220,2013-05-20 17:55:00
1:15 PM,70.3,56.7,62,29.64,10.0,SW,12.7,17.3,N/A,,Overcast,220,2013-05-20 18:15:00
1:55 PM,71.1,56.3,60,29.63,10.0,SSW,10.4,21.9,N/A,,Overcast,200,2013-05-20 18:55:00
2:15 PM,72.9,58.1,60,29.62,10.0,South,18.4,24.2,N/A,,Mostly Cloudy,190,2013-05-20 19:15:00
2:35 PM,73.4,56.8,56,29.61,10.0,SSW,18.4,25.3,N/A,,Mostly Cloudy,200,2013-05-20 19:35:00
2:55 PM,72.7,57.0,58,29.61,10.0,South,15.0,27.6,N/A,,Mostly Cloudy,190,2013-05-20 19:55:00
3:15 PM,71.8,57.2,60,29.61,10.0,SSW,10.4,23.0,N/A,,Overcast,200,2013-05-20 20:15:00
3:35 PM,71.6,57.2,60,29.60,10.0,SSW,18.4,25.3,N/A,,Overcast,200,2013-05-20 20:35:00
3:55 PM,73.8,57.7,57,29.60,10.0,SSW,18.4,23.0,N/A,,Mostly Cloudy,200,2013-05-20 20:55:00
4:15 PM,75.9,55.9,50,29.59,10.0,SW,17.3,27.6,N/A,,Mostly Cloudy,220,2013-05-20 21:15:00
4:35 PM,75.6,54.7,48,29.59,10.0,SW,17.3,28.8,N/A,,Scattered Clouds,220,2013-05-20 21:35:00
4:55 PM,74.7,54.7,50,29.58,10.0,SW,16.1,26.5,N/A,,Scattered Clouds,220,2013-05-20 21:55:00
5:15 PM,73.9,53.4,49,29.58,10.0,SSW,17.3,28.8,N/A,,Mostly Cloudy,210,2013-05-20 22:15:00
5:35 PM,73.4,54.0,50,29.57,10.0,SW,12.7,17.3,N/A,,Overcast,230,2013-05-20 22:35:00
5:55 PM,73.0,53.1,49,29.57,10.0,SW,15.0,21.9,N/A,,Mostly Cloudy,230,2013-05-20 22:55:00
6:15 PM,74.3,53.6,48,29.56,10.0,WSW,15.0,24.2,N/A,,Scattered Clouds,250,2013-05-20 23:15:00
6:35 PM,73.8,52.3,47,29.56,10.0,SW,15.0,28.8,N/A,,Clear,230,2013-05-20 23:35:00
6:55 PM,73.4,53.2,49,29.56,10.0,WSW,17.3,25.3,N/A,,Clear,240,2013-05-20 23:55:00
7:15 PM,72.5,52.7,50,29.56,10.0,WSW,15.0,20.7,N/A,,Clear,240,2013-05-21 00:15:00
7:35 PM,72.1,51.8,49,29.56,10.0,SW,18.4,24.2,N/A,,Clear,230,2013-05-21 00:35:00
7:55 PM,71.1,52.0,51,29.56,10.0,WSW,12.7,18.4,N/A,,Clear,240,2013-05-21 00:55:00
8:15 PM,70.0,50.5,50,29.57,10.0,SW,10.4,17.3,N/A,,Clear,230,2013-05-21 01:15:00
8:35 PM,68.7,51.3,54,29.57,10.0,SW,9.2,-,N/A,,Clear,230,2013-05-21 01:35:00
9:15 PM,66.9,51.6,58,29.58,10.0,SW,9.2,16.1,N/A,,Clear,230,2013-05-21 02:15:00
9:35 PM,64.9,52.0,63,29.59,10.0,SW,8.1,-,N/A,,Clear,230,2013-05-21 02:35:00
9:55 PM,64.0,52.2,65,29.58,10.0,WSW,9.2,-,N/A,,Clear,240,2013-05-21 02:55:00
10:15 PM,63.7,52.7,67,29.59,10.0,WSW,9.2,-,N/A,,Mostly Cloudy,240,2013-05-21 03:15:00
10:35 PM,63.7,53.1,68,29.60,10.0,WSW,10.4,-,N/A,,Overcast,240,2013-05-21 03:35:00
10:55 PM,63.5,54.3,72,29.60,10.0,WSW,10.4,-,N/A,,Overcast,250,2013-05-21 03:55:00
11:15 PM,62.2,56.3,81,29.61,10.0,West,9.2,-,N/A,,Overcast,270,2013-05-21 04:15:00
11:35 PM,62.1,57.6,85,29.61,10.0,West,23.0,-,N/A,,Overcast,270,2013-05-21 04:35:00
11:55 PM,60.4,58.6,94,29.61,10.0,West,12.7,-,N/A,,Overcast,280,2013-05-21 04:55:00